Theta_e
299 300 301 303 302 299 299 298 297 297 299 297 294 293 294 291 285 286 295 296 295 296 299 301 302 303 302 305 308 310 311 311 311 310 311 312 312 312 312 312 312 313 313 314 314 313 312 313 315 315 316 317 318 319 319 318 320 320 320 320 319 318 319 319 319 321 322 322 322 322 322 322 322 322 322 322 323 323 323 323 324 323 323 323 323 323 324
297 298 300 302 301 300 299 299 298 298 299 297 296 297 298 294 292 291 296 297 298 300 299 301 303 303 305 306 309 308 309 310 311 311 311 312 312 312 312 313 313 313 313 314 314 313 312 312 314 315 315 315 316 317 319 319 320 320 321 319 319 319 320 320 319 320 320 320 320 320 320 320 321 321 321 321 320 319 320 320 320 322 321 322 321 321 322
294 297 299 299 300 300 297 298 298 298 298 297 297 299 299 298 295 297 297 296 296 299 301 303 306 306 306 307 308 309 310 311 311 311 311 312 312 312 313 312 313 313 313 314 313 313 313 313 314 315 315 315 316 316 318 320 320 320 322 318 320 318 318 318 318 318 318 319 319 319 319 319 318 319 320 319 318 318 318 319 319 320 320 320 320 320 321
288 293 298 298 298 298 296 295 296 296 295 293 296 294 299 293 294 295 294 294 293 298 304 305 305 304 305 306 307 308 309 310 311 311 310 311 312 312 312 312 312 311 311 311 313 312 313 314 314 314 315 316 316 317 318 319 320 321 321 319 318 318 317 317 317 317 317 318 318 318 318 318 317 317 318 319 319 317 317 318 319 319 319 318 318 319 320
282 291 296 296 296 294 289 289 294 298 296 293 296 299 299 297 296 290 288 291 294 300 303 302 302 302 302 303 305 306 308 309 310 311 311 311 313 313 312 312 312 311 312 311 313 312 314 315 315 317 317 317 317 318 316 318 320 319 318 318 317 317 317 317 316 316 317 318 317 317 317 317 316 317 317 318 318 317 316 317 316 317 318 316 316 317 318
284 291 295 295 291 284 284 291 298 301 300 299 297 297 300 300 299 296 298 299 299 301 303 302 302 302 303 305 306 309 310 308 308 310 311 311 312 313 313 313 313 312 313 312 312 314 315 315 317 318 318 317 316 317 319 319 318 318 318 317 317 317 316 316 316 316 316 316 316 315 315 315 314 314 314 314 315 317 315 314 314 315 314 313 314 315 317
287 289 290 287 280 284 293 299 303 303 303 303 301 299 301 301 301 301 300 301 300 305 305 305 306 306 307 307 308 308 309 309 309 309 310 309 310 311 313 314 314 313 313 312 312 314 315 316 316 316 317 317 317 318 318 318 318 317 317 316 316 316 316 316 315 315 316 316 315 314 313 313 312 312 312 312 313 315 313 312 312 311 310 310 313 315 317
286 288 283 282 281 290 299 301 305 307 305 303 300 299 301 302 303 302 301 302 303 304 306 306 307 307 307 307 309 310 308 310 311 310 310 311 312 312 314 314 314 314 315 314 314 314 316 316 316 317 316 317 317 316 317 317 317 317 317 316 316 316 316 315 315 314 313 313 313 312 311 310 311 311 310 310 310 312 311 309 309 309 308 309 311 314 317
287 283 283 287 292 296 299 298 300 301 298 298 297 289 293 298 302 302 301 301 302 303 305 306 307 307 309 307 308 309 310 312 310 312 313 314 315 317 317 317 317 317 317 316 316 318 317 318 317 316 316 317 316 316 316 316 316 316 316 315 315 315 314 313 312 311 311 312 312 311 310 309 308 309 309 308 308 309 307 306 305 306 306 306 309 313 316
286 285 286 284 285 283 287 296 303 305 307 303 300 295 293 299 302 305 303 302 303 305 306 307 306 308 305 302 304 309 310 312 312 311 315 317 318 320 320 319 320 319 319 320 320 318 316 315 316 316 316 317 316 315 314 314 314 313 312 312 313 313 312 311 310 309 310 311 311 311 308 308 308 308 307 305 307 309 305 303 303 304 305 304 306 310 314
288 288 284 282 282 284 288 295 301 306 307 304 300 293 287 296 300 304 304 303 305 305 306 306 306 304 300 300 303 309 309 310 314 314 315 320 322 322 322 322 320 318 318 318 317 316 316 315 315 315 315 315 314 313 313 312 312 311 310 310 310 311 311 311 310 310 310 310 310 309 307 307 308 308 307 306 307 305 304 303 303 303 306 302 303 306 310
285 285 286 284 284 287 298 300 303 306 305 304 298 288 284 295 301 306 305 306 305 305 306 305 305 304 298 301 305 307 309 310 315 319 322 323 322 322 321 318 318 317 318 317 315 315 314 314 315 315 314 314 313 311 310 310 310 309 309 309 309 310 311 311 310 310 309 310 309 309 306 306 307 308 309 304 304 303 302 303 302 301 302 302 301 302 304
287 287 285 284 288 296 301 307 308 305 306 300 288 284 288 295 300 306 305 305 307 307 307 307 303 304 303 303 306 312 316 320 321 322 323 323 322 320 319 317 316 316 315 316 315 315 315 315 314 314 313 311 310 310 309 308 308 309 309 309 309 309 310 311 311 310 307 307 307 308 310 307 308 308 305 304 303 302 301 302 300 300 300 300 300 299 300
286 287 288 288 285 293 307 310 308 307 302 291 286 292 299 304 307 308 308 308 307 309 309 307 306 309 310 317 314 313 316 321 320 321 320 319 318 317 315 315 315 316 315 314 314 313 313 313 313 313 311 309 308 307 307 307 307 308 309 309 309 309 310 310 310 309 306 306 308 310 309 306 306 306 305 305 303 302 300 299 299 298 299 299 299 298 298
288 284 285 286 286 293 310 309 304 305 291 289 295 305 309 312 309 308 310 311 313 314 313 314 314 314 314 315 315 316 320 320 319 319 319 317 316 315 314 314 314 315 313 313 312 312 312 312 312 311 310 308 307 307 306 306 308 310 310 310 310 309 309 309 309 308 306 305 306 310 308 305 304 303 303 303 303 301 300 299 298 298 297 297 296 296 298
285 286 285 285 290 299 310 305 293 306 309 311 311 309 308 312 311 311 311 312 313 313 316 314 312 313 315 313 316 317 317 317 317 316 316 315 314 314 314 314 314 314 313 312 311 311 311 311 310 310 309 307 307 307 306 309 309 310 310 310 309 308 307 309 308 309 307 306 304 305 307 304 303 303 303 302 302 301 299 299 298 298 297 297 296 296 296
290 287 288 299 306 308 311 311 311 310 311 312 314 312 312 312 313 313 313 313 313 312 312 312 312 311 312 315 317 317 316 316 316 315 314 314 314 313 313 312 312 313 312 310 310 310 310 310 310 309 309 308 307 307 307 309 310 310 310 309 307 307 307 306 305 306 306 304 303 303 304 302 302 302 300 299 298 298 299 297 297 298 297 297 298 297 296
303 305 306 308 307 308 310 312 313 312 311 313 313 313 311 312 313 313 314 315 315 315 312 311 311 311 313 314 313 315 315 315 314 314 314 313 313 312 312 311 311 311 311 311 310 310 309 309 310 310 309 308 307 307 309 311 311 311 310 307 305 305 305 304 304 304 302 301 301 302 302 303 303 301 299 299 300 299 299 299 297 298 297 296 297 295 296
294 292 299 304 307 308 309 312 314 315 314 315 315 313 312 314 313 314 314 315 316 316 315 312 314 314 313 314 314 314 314 314 314 314 313 312 312 311 311 310 310 311 310 310 309 309 308 307 309 310 309 309 309 310 310 310 310 311 308 307 307 304 303 302 301 300 302 301 300 300 300 300 301 301 298 296 298 299 298 297 296 296 298 296 298 297 297
295 292 300 306 308 309 310 310 311 311 313 316 318 317 317 316 315 317 318 318 317 317 316 316 316 314 314 314 313 313 314 314 313 313 312 311 310 310 310 310 311 310 310 309 308 308 308 308 308 309 310 310 311 310 310 310 310 310 309 306 305 303 302 301 301 301 301 306 302 298 298 299 298 297 296 297 296 296 297 298 297 298 298 297 298 298 297
299 301 304 308 305 306 310 312 312 312 312 311 311 312 316 316 315 316 316 314 316 316 316 314 316 316 314 313 314 314 313 312 312 312 311 311 310 310 309 310 310 310 309 309 308 309 309 309 309 309 309 310 311 311 312 312 307 306 306 304 304 302 300 299 300 301 302 300 299 298 298 298 298 298 296 296 297 298 297 300 300 300 298 297 298 296 297
290 294 300 305 295 292 304 307 311 313 313 311 310 310 311 311 311 311 309 308 309 311 316 316 315 315 314 312 311 312 312 312 312 311 311 311 310 309 310 310 310 310 310 309 309 309 309 309 309 310 310 310 311 312 310 308 306 305 304 302 300 299 299 299 300 300 301 300 300 299 298 297 296 297 296 296 296 296 297 297 294 296 296 296 297 295 295
290 300 304 307 305 302 304 309 312 314 314 311 310 309 309 311 310 310 307 307 307 307 307 313 316 315 315 313 311 311 310 311 312 312 311 311 310 310 310 310 309 309 309 309 308 308 309 310 310 311 310 309 309 308 307 306 305 304 303 302 300 299 300 299 298 301 300 299 298 299 298 296 296 295 296 298 294 293 294 294 293 293 292 292 292 294 297
304 308 309 309 306 303 304 307 309 314 313 312 312 312 311 310 311 309 308 308 308 307 307 306 312 315 314 313 313 311 310 310 311 311 312 312 311 311 311 311 310 310 310 308 307 308 309 309 310 310 308 306 306 306 306 306 305 304 304 303 301 300 299 298 299 301 300 298 298 298 298 297 295 293 294 295 297 296 294 293 293 293 293 293 293 292 293
305 311 310 307 305 305 306 307 309 312 314 314 311 312 311 311 313 312 312 309 309 309 307 307 307 311 315 314 312 312 311 311 311 311 310 309 310 311 311 310 310 310 309 308 308 309 309 309 307 306 305 304 304 305 305 304 304 303 303 302 301 299 299 300 299 299 298 298 298 298 298 297 296 295 294 293 294 294 296 294 294 293 293 293 293 293 293
307 309 309 308 308 308 309 308 308 310 309 310 310 309 316 317 316 313 312 310 308 308 308 306 306 305 311 314 313 312 311 312 309 309 310 310 310 309 310 310 310 309 308 307 308 308 307 306 306 304 303 303 303 304 304 304 304 304 303 302 301 300 299 299 299 299 298 299 298 298 296 294 294 294 294 295 293 293 292 293 295 294 293 294 293 293 294
302 303 306 303 301 302 302 304 303 305 307 308 308 308 308 309 319 317 314 311 310 309 310 309 307 309 308 310 312 313 313 312 310 310 311 311 310 310 310 309 309 308 307 307 307 306 305 305 305 303 302 303 304 304 305 305 304 303 302 302 302 299 298 298 300 301 300 300 298 295 294 295 294 294 294 293 291 291 292 292 292 291 292 294 294 293 294
301 301 301 298 296 298 300 301 301 303 303 305 305 305 306 305 304 304 304 304 305 304 304 305 307 306 306 306 309 311 310 310 311 311 310 310 311 309 309 308 307 306 307 307 307 306 305 303 303 303 304 305 305 305 305 304 304 304 304 304 303 302 302 300 301 300 299 297 294 294 294 294 295 293 292 291 292 292 291 292 291 291 291 292 292 293 293
301 301 301 301 300 300 300 300 299 299 299 299 301 301 302 301 300 301 301 302 302 303 304 306 307 306 307 307 307 310 311 311 311 311 311 311 309 308 308 307 306 306 305 305 304 304 304 304 304 304 304 304 304 305 305 304 304 305 304 303 302 301 299 299 298 298 296 294 294 294 292 292 292 291 291 292 292 292 292 291 290 290 290 290 291 293 292
299 300 301 301 302 301 300 299 299 299 299 299 299 299 299 300 300 299 300 304 304 305 305 305 306 306 306 305 305 307 310 311 311 308 307 306 304 305 308 307 306 304 303 303 305 306 306 305 305 305 305 306 305 304 303 303 304 304 302 301 299 298 297 298 297 295 294 294 294 290 292 292 292 292 291 291 292 292 291 290 290 290 289 290 292 290 289
299 299 300 301 302 302 300 299 300 301 301 300 300 300 300 299 300 301 303 303 303 303 303 305 304 305 306 306 306 306 306 305 305 305 305 306 306 306 306 306 303 302 302 303 305 306 306 306 306 306 306 305 303 302 302 301 302 302 300 298 296 291 291 292 292 294 294 294 293 293 292 292 291 291 291 291 291 291 290 290 289 289 288 289 290 289 289
298 299 301 300 299 299 300 301 301 302 303 304 304 304 302 301 300 302 303 303 302 302 302 303 303 304 304 306 307 307 307 307 306 304 305 306 306 307 307 306 304 300 305 305 305 306 306 306 303 303 303 303 302 301 300 299 298 297 297 294 297 296 293 290 291 293 293 293 292 292 292 292 291 291 290 290 290 290 289 289 289 288 289 289 289 288 289
296 297 298 300 300 300 301 301 302 302 303 304 305 306 307 307 306 305 304 304 303 302 303 302 302 302 303 305 306 306 305 305 305 304 304 303 304 306 306 305 305 305 305 305 306 307 304 302 301 302 301 300 300 299 299 298 298 297 296 296 296 295 291 290 291 293 292 293 292 292 292 291 291 291 291 289 289 288 288 288 287 288 288 287 288 289 290
298 298 298 300 300 300 301 302 303 303 305 307 307 307 308 308 307 306 305 303 303 302 301 302 301 302 303 303 303 303 303 303 302 302 303 303 303 304 305 305 305 305 306 306 307 305 302 302 301 300 300 299 299 298 298 297 297 296 295 295 295 295 296 294 292 294 293 293 292 292 290 290 291 290 290 290 289 289 287 287 287 287 287 288 288 288 290
300 300 301 303 302 303 304 303 303 303 304 304 305 305 307 307 307 306 305 305 304 303 303 303 302 303 303 303 303 302 302 301 301 301 303 303 304 304 305 305 305 304 304 304 305 304 302 302 301 300 300 299 299 298 297 296 295 294 295 294 293 293 294 293 293 293 293 292 292 291 291 290 291 288 289 288 288 287 287 288 287 286 287 288 288 288 290
302 303 303 302 302 303 303 303 302 302 303 302 303 303 302 302 303 304 303 303 304 306 304 303 302 302 301 302 302 302 302 302 302 303 304 304 305 304 304 304 304 303 302 302 304 304 304 302 294 293 299 298 298 298 297 296 295 295 294 295 293 293 293 292 291 291 291 292 292 290 291 290 289 288 287 287 287 288 288 288 287 287 287 287 288 288 290
304 304 303 303 302 302 301 302 302 302 303 303 302 301 301 300 300 299 300 300 302 303 303 303 301 301 300 299 301 302 302 302 303 304 304 305 305 304 303 303 302 300 300 300 300 302 301 299 291 290 295 296 296 295 293 290 295 294 295 295 294 292 292 291 292 293 291 291 292 290 289 289 289 287 287 287 288 287 287 287 287 287 287 288 288 288 288
303 304 303 302 302 301 301 302 304 303 302 301 302 301 301 300 300 300 299 299 300 300 300 301 301 301 300 299 299 301 301 301 301 302 302 303 303 303 302 301 298 298 298 299 299 299 299 294 289 293 295 294 294 293 291 288 290 293 294 294 293 291 291 291 291 290 291 291 289 289 289 288 287 288 287 287 287 287 287 287 287 287 288 288 288 288 288
302 302 302 302 301 301 302 303 304 302 302 301 300 300 300 300 300 300 300 298 299 298 300 300 299 299 298 299 299 299 300 300 301 302 303 303 303 302 300 300 300 299 299 300 300 299 297 295 297 296 295 295 295 294 290 288 288 292 292 294 294 292 291 292 292 290 289 290 289 288 288 287 287 287 287 286 287 286 286 287 287 287 288 288 288 288 289
301 300 300 300 300 300 301 301 301 302 301 302 301 300 300 300 299 299 298 299 300 299 299 298 298 299 298 298 297 297 298 298 299 299 299 299 298 298 298 299 301 301 299 294 299 299 295 292 295 297 296 295 295 295 291 292 293 292 295 295 294 291 292 291 290 290 289 289 289 286 287 286 287 287 286 287 287 287 287 287 287 288 288 287 287 288 288
302 302 302 300 300 300 301 300 300 302 302 301 301 300 300 300 299 298 298 298 299 298 299 297 297 296 296 297 298 298 297 297 298 298 298 297 297 296 297 298 299 299 298 298 297 296 293 295 297 296 295 295 293 291 291 291 293 295 295 294 293 292 290 290 289 289 289 289 287 288 287 286 286 287 286 287 287 287 286 287 287 287 287 287 287 287 286
303 304 303 303 301 300 300 301 300 300 300 300 299 299 299 298 298 298 298 297 297 297 297 298 295 298 298 298 298 297 298 299 300 299 299 299 298 297 298 299 301 299 293 291 292 294 297 297 295 293 295 294 292 289 290 290 292 293 294 292 291 290 290 289 289 288 288 288 288 287 286 286 287 286 286 287 287 286 286 286 287 287 287 287 286 286 286
302 301 301 302 302 302 302 301 301 300 300 300 301 300 300 299 299 298 297 296 297 297 297 298 295 294 296 297 297 297 297 299 300 300 300 300 300 301 301 300 298 296 289 293 297 297 297 296 296 293 291 292 290 287 286 291 292 293 293 292 292 290 288 289 289 288 289 288 288 287 287 287 287 287 287 287 286 286 286 287 286 287 286 287 286 286 286
302 301 302 302 302 302 302 302 301 301 300 300 301 301 300 300 300 299 298 297 296 296 297 297 297 296 296 297 297 296 296 297 297 297 298 298 300 300 299 299 297 293 289 295 296 295 295 294 294 291 287 288 287 286 290 292 293 293 294 292 291 289 289 289 289 289 288 288 288 288 288 287 287 287 288 287 287 287 287 286 286 287 286 286 286 285 285
300 302 303 303 303 303 302 302 301 300 300 300 300 300 300 300 299 299 298 297 297 297 296 297 297 297 297 297 297 298 298 299 298 298 297 295 295 297 298 294 295 293 292 292 295 294 294 293 291 287 287 286 286 287 292 292 292 292 292 292 290 289 289 289 289 288 288 288 288 288 287 287 287 287 288 288 286 286 285 285 285 285 285 285 285 285 284
300 301 302 297 300 301 301 302 302 301 301 300 300 300 300 300 301 300 300 300 300 299 300 299 298 297 298 298 298 298 298 298 298 299 300 299 299 300 300 293 293 291 290 290 293 293 293 289 287 286 286 286 286 290 291 290 290 291 291 291 290 289 289 289 288 288 289 288 288 287 288 287 288 287 287 286 286 286 286 285 285 285 285 284 284 284 283
301 301 301 301 302 303 303 302 301 301 301 299 297 297 299 300 300 300 301 300 300 301 302 302 301 300 300 301 300 297 296 296 297 296 296 298 298 298 294 291 290 289 290 294 293 293 291 289 287 286 285 285 285 290 290 291 291 291 290 290 289 289 289 289 289 289 288 287 287 286 286 287 287 287 286 286 286 285 285 285 284 284 284 283 283 283 283
300 300 300 301 301 302 302 300 299 299 297 297 297 297 297 299 299 300 301 302 302 302 303 303 303 304 302 302 302 300 298 295 295 294 296 297 297 297 294 291 292 289 290 290 290 289 288 287 286 285 284 284 286 289 291 293 292 290 289 289 289 289 289 289 289 288 288 288 287 288 287 286 286 286 285 285 284 285 284 284 283 283 283 283 282 282 282
299 300 301 302 301 301 300 298 297 295 296 296 296 297 299 299 300 299 301 302 302 302 302 302 301 300 300 298 300 300 298 296 296 295 296 297 296 295 293 290 288 288 291 292 292 290 287 286 286 285 285 285 288 291 291 291 290 289 290 289 289 289 289 289 289 288 288 288 287 287 287 287 286 286 285 284 284 284 284 284 283 283 282 282 282 281 282
301 300 299 299 299 299 299 296 296 297 298 296 297 298 298 299 298 299 298 298 300 298 299 298 298 298 299 300 297 298 300 299 298 297 296 297 298 295 292 292 292 290 290 292 292 291 287 286 287 286 287 288 290 290 291 290 290 290 290 289 289 288 289 289 287 287 289 287 287 287 287 286 286 285 284 284 284 283 283 282 282 283 283 282 281 281 280
297 295 294 296 298 299 300 299 298 299 299 297 297 298 299 298 298 297 297 297 296 295 296 296 297 298 297 298 298 300 302 302 298 294 295 295 295 292 292 293 293 291 291 291 292 291 291 290 290 289 288 289 290 292 291 290 289 289 288 289 289 289 289 288 288 288 288 287 287 287 287 285 285 284 284 284 283 283 282 282 282 282 281 281 280 281 280
300 298 299 299 299 299 300 301 300 299 298 296 296 296 296 297 296 295 294 291 294 294 295 295 296 297 297 297 295 296 296 296 295 295 293 293 293 293 292 290 292 291 292 293 293 294 292 292 289 288 288 290 290 290 288 287 288 289 289 289 288 289 288 288 288 288 287 288 287 287 286 285 285 284 283 283 283 282 281 281 281 281 280 280 279 279 280
Wind_Speed
2 2 3 4 1 4 6 6 5 5 3 2 4 3 4 6 3 6 2 4 4 4 6 8 11 11 11 12 13 15 15 10 5 6 8 10 11 10 10 11 11 11 11 9 10 8 8 7 7 8 8 8 7 6 5 5 4 5 5 4 3 4 5 2 3 5 4 4 6 7 6 6 7 7 7 5 5 6 5 5 5 5 5 5 6 7 7
3 5 3 1 4 1 2 1 5 5 6 6 6 4 4 7 3 6 5 5 2 4 5 8 7 6 8 8 6 5 7 10 11 10 10 11 11 12 12 12 12 11 11 10 10 10 7 7 9 9 8 8 8 8 7 6 6 6 4 4 5 1 3 4 4 6 7 6 6 7 8 7 6 6 6 5 4 4 4 4 4 4 5 5 5 6 7
3 5 6 0 3 3 3 6 2 2 4 5 1 3 1 4 3 1 2 2 2 4 5 4 3 3 2 8 8 11 12 11 11 11 11 11 12 12 13 12 12 10 10 10 9 9 10 10 10 11 10 8 7 6 7 6 7 6 5 3 4 7 6 6 7 6 7 6 6 8 6 6 5 4 4 3 4 5 7 7 7 6 5 6 6 6 5
4 4 1 6 2 2 5 5 5 3 5 4 2 3 5 5 5 4 4 1 3 3 2 0 6 5 9 11 11 10 9 10 10 11 11 12 12 12 12 12 10 10 10 9 9 12 12 11 10 8 8 8 7 8 7 8 6 4 6 8 9 8 7 6 6 7 6 6 7 6 6 6 5 4 3 5 7 7 7 8 6 5 7 6 5 5 5
2 8 3 5 5 5 6 3 5 9 5 2 1 1 3 5 9 5 4 8 6 6 4 7 4 6 7 8 9 8 8 9 11 13 13 13 13 14 13 12 11 11 11 11 10 11 10 10 9 9 9 6 7 7 4 3 7 9 9 10 10 8 6 6 6 6 6 7 6 5 5 5 4 6 7 8 7 7 7 5 6 8 7 7 6 6 6
3 6 5 1 2 3 5 6 9 8 6 6 6 3 7 5 7 7 8 8 4 4 4 8 7 5 6 8 9 10 14 12 10 11 11 13 13 12 11 12 12 12 10 8 7 9 10 10 9 7 6 8 5 7 9 8 11 10 11 9 9 8 7 6 6 5 6 6 6 5 4 6 8 8 8 7 6 5 5 7 8 7 8 8 6 7 7
4 2 4 5 3 6 8 6 4 6 6 8 10 4 6 6 3 3 1 1 4 9 10 9 10 11 8 6 9 6 7 11 12 14 13 10 7 10 11 11 10 10 10 7 6 4 4 4 5 7 5 8 8 9 10 10 10 11 10 10 8 7 7 5 5 6 6 7 6 6 6 7 8 7 6 6 6 5 6 6 7 7 7 7 7 6 6
1 2 2 1 3 5 6 6 2 2 5 4 6 1 1 5 8 7 6 7 7 8 9 9 8 9 8 4 5 8 8 8 11 10 11 9 11 12 13 14 12 9 8 9 9 6 3 6 5 8 8 8 11 8 9 11 9 9 9 9 7 6 6 5 5 5 6 7 7 6 7 7 7 6 6 5 5 4 6 7 7 7 8 7 8 6 5
4 4 3 7 4 4 1 2 1 5 5 6 7 6 5 4 3 7 6 6 6 5 6 7 6 2 3 4 5 5 5 6 6 12 10 11 12 12 10 12 14 9 7 7 6 5 5 7 9 8 8 10 12 10 10 9 10 9 10 9 8 7 6 5 5 6 7 8 7 6 6 6 5 5 6 6 5 4 7 6 7 7 6 6 6 6 6
4 4 2 2 1 3 6 10 7 6 4 3 6 6 3 3 4 5 5 6 7 7 4 0 4 6 5 3 7 7 6 6 7 3 7 7 6 5 7 4 6 7 7 7 6 10 9 7 7 7 8 11 11 11 10 9 10 9 9 8 7 7 6 6 6 6 6 7 6 5 5 5 4 3 4 4 4 3 6 6 6 4 4 7 6 6 5
3 1 3 3 3 5 6 6 5 3 5 10 4 5 1 4 3 3 7 5 5 6 6 4 7 7 7 8 9 9 6 4 2 6 4 5 5 6 9 13 11 8 9 11 10 10 12 11 5 7 9 12 12 11 9 9 9 10 8 7 7 7 6 5 6 7 6 6 5 4 4 3 3 4 4 4 3 4 4 5 4 4 5 6 6 5 4
3 5 3 4 4 2 1 4 6 4 4 6 6 2 3 3 4 1 8 7 5 4 4 8 8 11 8 8 10 6 6 4 2 7 12 8 8 6 6 5 8 10 11 12 10 11 12 10 7 9 10 12 12 11 8 8 10 9 8 7 6 6 6 6 7 8 5 4 4 4 4 3 2 4 2 2 4 5 4 5 6 4 4 5 5 4 2
5 8 3 2 3 4 3 5 8 1 2 7 6 6 4 3 3 1 4 6 7 8 7 6 6 6 7 6 6 1 7 7 5 4 4 6 8 11 10 10 8 9 7 10 11 10 9 9 8 8 11 13 11 9 9 10 9 7 6 6 6 7 7 8 7 5 4 4 5 3 1 1 3 4 3 4 3 4 4 4 4 5 4 4 4 3 2
6 5 5 7 3 3 4 7 3 1 2 5 6 3 2 1 1 2 4 6 4 5 7 5 5 5 3 0 4 6 5 8 6 8 10 11 9 7 6 8 11 11 11 11 11 9 7 9 8 9 11 12 10 9 9 9 6 5 6 6 7 7 8 8 6 4 4 4 4 4 3 4 6 4 2 3 4 4 3 4 4 4 3 3 3 3 1
2 2 1 1 3 1 5 8 3 5 2 5 3 3 3 1 1 0 2 2 3 5 2 2 5 4 3 4 6 7 8 9 9 10 11 12 12 11 11 9 8 14 12 11 10 8 6 7 8 9 12 12 9 8 10 6 5 6 6 7 7 8 7 6 4 4 4 4 3 3 3 4 5 4 3 3 3 3 4 3 3 3 2 2 2 2 1
2 2 3 3 2 4 5 3 4 2 1 2 2 4 3 3 3 1 3 2 1 1 8 5 3 4 7 5 6 7 7 7 7 7 7 8 9 8 6 9 10 13 12 10 9 6 6 6 7 8 12 11 9 9 8 5 6 7 7 7 8 8 6 5 3 3 3 4 4 3 2 2 4 5 4 3 2 2 2 3 2 2 1 0 1 1 2
2 2 1 1 2 3 4 3 1 1 1 1 1 3 1 3 3 0 3 2 2 1 4 4 5 3 2 6 9 12 8 10 11 11 10 11 12 12 12 10 9 11 13 12 10 7 6 7 6 7 9 12 10 10 5 5 7 8 7 7 9 8 3 3 3 3 3 4 4 4 3 3 5 4 4 3 3 1 0 1 1 0 2 1 0 2 3
1 0 1 2 2 3 6 5 2 1 4 5 3 4 5 4 3 3 3 1 1 1 0 3 2 2 4 7 3 6 8 8 6 7 9 8 8 10 10 9 10 11 11 11 11 10 6 5 6 5 6 10 11 8 5 5 6 7 8 8 6 5 5 4 3 4 5 4 5 5 5 5 5 4 4 4 3 0 0 0 0 1 3 2 3 3 5
2 1 3 4 4 4 3 3 5 2 3 3 6 5 3 3 4 6 6 5 6 3 2 1 3 4 4 6 5 6 7 9 10 10 11 10 11 13 12 11 11 11 11 10 10 10 8 4 6 5 6 6 8 8 7 6 6 6 8 10 7 3 5 4 3 4 5 4 5 5 5 5 4 4 4 5 4 3 1 2 2 4 6 4 4 4 5
1 2 3 5 3 3 6 2 2 5 7 4 1 1 2 1 1 4 6 7 7 4 5 3 5 4 1 5 7 6 8 9 9 9 10 11 8 7 10 10 10 10 10 11 9 8 7 5 5 6 7 7 7 7 5 6 5 6 6 7 6 5 5 4 4 5 5 5 5 6 4 4 5 5 4 4 6 4 4 3 3 5 5 6 6 4 6
3 3 4 5 3 2 2 2 0 1 3 5 5 3 1 1 4 4 3 5 4 4 3 1 6 5 3 2 7 8 6 6 6 8 9 9 10 10 9 8 10 12 10 10 9 8 7 5 6 7 7 7 9 9 7 6 6 7 6 7 6 5 4 4 5 4 5 4 5 6 4 4 2 1 4 4 5 4 3 2 1 1 3 6 4 3 2
4 3 2 0 1 2 1 2 2 3 3 3 5 6 7 7 3 4 6 4 3 3 3 4 5 6 4 4 3 7 7 8 8 8 9 9 10 9 8 9 8 9 9 11 9 9 7 7 7 7 6 7 8 9 8 7 8 9 8 7 6 5 4 5 5 5 5 4 4 5 5 4 4 2 3 8 4 6 5 8 5 3 5 4 2 2 3
4 5 7 4 2 3 5 5 5 3 3 2 5 4 4 5 1 0 3 4 4 3 2 2 5 4 6 5 4 5 5 7 9 12 12 11 9 9 8 8 7 10 9 8 8 9 8 6 6 6 7 8 8 7 7 7 9 9 8 7 6 5 4 5 5 6 4 4 4 5 4 4 4 6 7 9 10 10 8 7 8 13 13 10 7 1 4
4 5 6 2 1 1 4 4 4 4 4 1 1 1 3 5 4 3 1 2 2 1 1 1 1 4 4 6 8 7 6 7 8 8 9 12 13 12 11 12 12 11 9 8 10 10 7 7 7 7 6 6 7 6 6 7 8 8 8 8 7 6 4 4 5 6 5 5 5 4 3 4 6 6 6 6 5 10 11 10 11 13 13 13 11 9 5
3 3 3 5 5 6 6 5 3 3 4 2 1 1 1 4 8 4 4 4 1 0 1 0 1 2 6 5 6 10 11 10 10 11 10 10 11 12 12 10 12 11 10 9 8 8 7 7 6 5 5 6 6 7 8 8 8 8 8 8 7 5 5 6 6 5 5 6 5 5 4 6 5 5 7 5 6 5 8 10 11 11 11 12 11 9 6
1 4 4 4 3 5 3 1 5 7 7 3 1 2 3 4 6 8 6 7 4 2 2 3 3 2 4 6 5 5 5 7 7 6 6 7 7 6 9 12 11 8 9 8 8 8 7 7 8 7 8 7 7 8 7 7 7 8 7 7 7 7 6 6 6 5 5 4 4 4 5 6 6 6 4 4 3 2 4 6 7 9 10 11 9 9 8
3 1 1 4 6 7 4 3 7 5 8 6 6 6 6 6 10 10 9 6 5 2 1 6 4 2 2 4 6 7 10 9 6 7 9 10 12 13 10 7 9 10 10 9 8 8 9 8 8 8 8 7 7 7 7 7 7 6 6 6 6 7 9 7 6 5 4 4 4 6 7 7 6 6 4 3 3 3 4 5 4 3 3 6 9 11 9
5 2 3 1 3 3 7 9 7 7 4 2 3 4 6 3 2 3 3 4 4 3 1 2 3 4 3 4 4 5 2 2 10 10 8 11 10 6 8 10 9 9 9 9 8 7 7 7 8 7 6 5 6 6 7 7 7 7 8 7 7 6 5 6 6 6 5 5 6 7 7 6 5 5 4 3 3 3 3 4 3 3 4 4 3 6 12
9 7 2 2 3 4 5 5 4 3 4 5 3 2 2 4 3 3 3 1 2 3 4 4 4 1 2 4 4 5 6 6 7 10 13 10 6 8 9 8 7 5 4 5 5 6 6 8 8 8 5 4 5 6 7 7 7 8 8 7 6 6 5 5 5 5 5 6 7 7 6 6 5 4 3 3 3 4 5 4 3 2 2 3 6 7 8
4 4 5 7 10 6 4 5 5 5 4 4 5 5 4 3 4 4 3 3 2 3 2 1 4 5 4 3 2 2 5 7 5 0 4 6 5 5 5 7 7 7 8 9 8 8 11 12 10 9 6 3 6 7 8 7 7 8 8 6 5 6 6 4 4 4 6 7 7 8 6 5 4 4 4 3 3 5 4 4 3 3 4 4 5 5 6
8 4 6 8 9 8 6 3 1 0 1 3 3 4 5 3 3 2 2 1 2 3 2 3 4 4 5 5 5 6 6 6 7 8 8 9 8 7 6 6 9 6 7 7 7 7 7 6 6 6 5 6 7 7 9 8 7 6 5 5 4 6 7 6 5 6 7 7 7 7 5 4 4 4 3 4 5 5 3 4 4 3 3 5 6 3 2
6 8 6 2 2 1 2 2 3 2 1 1 5 4 2 1 1 3 4 3 2 3 4 4 5 5 4 4 8 9 10 9 9 8 9 9 10 9 8 9 9 6 7 5 1 3 3 6 8 6 5 6 7 9 9 7 6 6 5 4 4 3 4 5 5 7 8 7 6 6 5 5 3 3 4 6 4 2 3 4 3 3 4 5 4 2 1
4 7 3 1 2 4 3 2 2 2 1 3 2 2 3 4 3 2 1 2 4 3 4 4 4 3 4 5 7 9 10 11 10 8 7 7 7 7 7 8 7 4 2 3 4 4 7 9 7 4 5 6 7 7 7 8 7 6 5 5 4 2 4 5 7 7 6 7 7 5 4 3 3 5 5 4 2 3 4 4 3 5 4 3 2 1 1
10 9 6 4 5 5 4 1 1 1 0 0 0 2 4 4 6 5 5 3 4 3 4 4 3 3 4 5 6 6 7 8 8 9 9 7 5 5 5 6 6 6 5 4 4 6 6 7 7 5 5 6 7 6 6 6 6 6 5 5 6 6 6 6 5 7 7 6 5 4 4 4 5 4 4 3 2 4 5 5 4 3 4 3 3 3 3
4 3 4 4 4 4 4 4 3 3 3 3 1 1 3 5 6 6 6 7 6 5 5 4 4 4 6 6 7 6 7 8 8 8 6 6 6 7 5 5 5 4 4 3 5 6 6 7 6 6 6 6 6 5 5 6 6 6 4 5 6 7 7 5 6 7 7 6 5 4 4 5 4 4 4 3 3 5 6 4 4 3 4 3 4 4 5
4 4 3 2 3 4 3 3 2 2 4 4 3 4 3 3 4 5 6 4 4 5 4 4 4 4 5 6 7 8 8 9 9 9 9 8 6 5 6 6 6 5 5 2 2 6 5 6 7 9 6 6 6 4 5 5 4 5 4 6 7 7 7 6 5 6 5 6 5 4 4 4 5 4 3 3 4 5 6 5 4 3 3 3 2 3 4
5 6 4 4 3 3 3 1 1 3 4 4 4 4 4 3 4 3 3 3 4 4 4 4 4 6 6 4 5 5 5 7 7 7 8 7 6 5 4 5 6 7 7 6 5 4 5 5 7 10 7 5 5 4 4 7 6 5 5 6 7 7 7 6 6 6 4 4 5 4 5 6 6 4 4 5 5 4 5 4 3 3 3 2 2 4 4
3 5 5 4 4 3 3 3 3 4 5 3 1 2 4 4 3 4 4 4 4 4 4 4 4 4 4 3 4 5 5 4 4 5 4 4 5 5 4 6 6 7 7 7 6 6 6 8 9 7 5 5 5 4 4 7 6 4 4 6 7 7 7 6 6 5 5 5 6 7 7 7 6 5 4 5 4 4 5 4 4 3 2 2 3 3 2
1 1 2 2 3 2 2 2 3 4 5 5 3 3 2 4 4 4 4 4 2 3 4 4 4 4 4 4 4 4 4 4 4 4 4 4 4 5 6 8 9 9 7 7 8 6 7 8 6 7 6 6 5 4 4 4 5 4 4 5 6 7 7 7 7 6 6 7 7 7 6 6 5 6 5 4 3 3 4 3 3 3 2 1 3 4 5
14 10 3 1 0 1 1 1 3 4 4 6 7 5 4 4 3 3 3 2 1 0 1 2 4 4 4 4 4 4 4 4 4 4 4 4 4 4 3 4 5 3 6 10 7 7 9 10 7 6 6 5 5 4 3 3 4 3 4 5 6 6 5 5 7 7 7 7 7 6 6 6 6 4 4 4 4 3 3 2 2 1 2 3 5 6 5
7 11 14 10 4 2 1 3 3 4 4 4 5 6 5 6 4 4 4 3 2 3 3 3 3 3 3 4 4 3 2 4 5 5 5 5 5 5 7 7 4 4 7 7 6 8 9 8 7 7 6 5 4 4 3 2 2 3 3 4 6 7 6 6 8 7 7 7 6 7 7 6 5 5 4 5 4 2 2 2 2 3 4 4 4 4 4
6 7 10 13 12 11 10 7 1 3 2 4 4 5 5 5 6 6 5 4 3 2 3 4 4 5 4 4 3 3 4 4 6 6 7 8 7 5 6 5 6 7 8 10 9 9 7 6 7 7 7 5 5 5 4 2 3 4 3 4 6 6 7 7 7 7 7 7 6 5 5 5 6 5 4 5 5 5 4 4 5 6 5 4 4 3 3
3 4 5 7 8 7 8 10 11 4 5 5 6 6 6 5 4 4 4 4 4 3 3 3 3 3 4 4 4 4 4 2 4 5 3 3 5 7 9 6 5 6 9 8 7 6 6 6 7 6 7 7 5 6 5 3 3 4 3 5 6 6 5 7 7 7 7 7 6 5 5 5 6 6 6 6 5 5 5 6 5 5 4 4 4 4 4
3 3 3 4 8 7 6 8 13 9 4 6 6 5 5 4 4 5 4 4 4 3 4 4 4 4 3 2 4 5 6 3 4 4 7 3 1 4 2 7 6 8 11 8 7 6 6 7 7 8 10 10 9 8 5 4 4 4 5 5 5 6 7 7 7 7 6 6 7 6 6 5 6 5 7 7 7 7 6 6 6 5 5 4 4 3 3
3 2 4 4 4 2 7 6 11 8 4 2 1 1 2 4 4 4 4 3 1 0 1 2 3 3 3 3 4 5 6 6 6 6 6 4 5 5 3 6 8 8 9 9 7 7 7 7 9 11 10 10 10 8 5 4 4 4 6 6 6 7 7 7 7 7 7 7 6 6 6 6 6 7 7 7 6 7 6 5 4 4 3 3 3 3 3
4 1 2 4 2 1 1 4 9 9 5 5 4 4 5 2 1 2 4 4 3 3 2 1 1 3 3 3 2 3 4 5 4 5 6 8 8 6 6 7 7 8 10 10 7 7 7 10 12 11 11 10 9 7 5 5 4 5 7 8 8 7 7 7 7 7 7 7 6 6 6 7 7 6 6 6 6 6 5 4 3 3 3 3 3 2 2
4 3 2 3 5 3 2 4 6 5 4 2 5 3 3 3 3 3 1 0 1 1 1 1 0 2 2 2 3 2 3 5 5 4 6 6 5 5 9 11 9 10 10 8 8 8 8 9 10 10 10 9 8 5 5 5 4 6 7 8 7 7 7 7 7 7 7 6 7 7 6 7 7 6 6 6 6 5 4 4 4 3 2 2 2 2 3
3 3 3 3 6 5 3 4 6 6 3 5 4 4 3 3 2 2 4 7 7 7 4 3 7 8 8 5 1 1 3 4 4 5 3 6 5 4 6 7 8 11 11 7 9 7 12 12 11 10 9 8 6 4 5 6 7 7 7 8 7 7 7 7 7 7 7 7 7 7 7 6 6 6 6 6 5 5 4 4 3 2 2 2 2 2 3
3 3 2 1 3 6 5 7 7 5 4 3 2 2 1 1 2 3 3 1 5 6 9 8 7 6 6 6 5 4 4 5 5 6 4 5 6 6 6 7 10 11 8 7 7 7 9 11 11 10 8 6 3 4 5 6 7 8 7 7 7 7 7 7 7 7 7 7 7 7 6 7 6 6 6 6 5 5 5 4 3 2 2 2 2 2 3
2 1 1 1 2 5 6 6 6 6 5 4 6 6 3 2 1 3 2 4 7 9 9 8 7 5 3 2 1 1 3 3 1 2 5 4 4 5 7 7 7 8 8 7 7 7 7 8 5 6 6 5 4 5 5 7 8 8 8 7 8 7 7 8 7 7 7 7 7 7 7 7 6 6 6 5 6 5 4 3 2 3 4 3 3 3 3
2 5 5 5 4 4 7 9 8 7 6 6 5 5 5 5 5 3 3 4 3 7 7 5 2 2 3 1 1 2 2 4 5 4 3 5 5 8 9 7 9 9 8 9 8 8 7 7 7 7 7 6 6 6 5 7 8 8 8 8 8 8 8 8 7 7 7 7 7 7 7 6 6 6 6 6 6 5 4 3 3 3 3 4 3 3 3
1 2 4 4 5 6 7 7 7 5 4 4 4 4 4 3 3 4 2 4 5 5 4 2 1 2 1 1 1 3 3 2 2 4 5 4 4 3 6 10 9 9 9 8 7 6 7 7 7 8 7 6 5 6 6 8 8 7 8 8 8 8 8 8 7 7 7 8 8 7 7 7 7 7 6 6 6 5 4 4 3 3 3 3 3 4 3
Wind_Direction
260 211 217 257 212 177 186 187 166 171 171 129 122 206 186 128 138 185 227 173 186 237 219 204 184 173 172 178 179 182 182 170 150 150 157 163 170 176 177 184 186 192 195 201 207 212 201 198 198 208 208 215 220 225 222 226 208 216 221 210 181 190 206 222 17 54 95 87 67 70 74 68 57 50 47 45 40 37 34 26 17 9 6 10 12 8 4
334 325 353 122 207 305 351 216 195 174 150 193 156 181 181 148 175 200 179 165 197 221 221 206 218 201 174 181 165 132 138 164 173 168 167 171 176 180 188 192 197 197 200 198 203 209 210 199 201 203 212 214 212 212 215 209 214 220 179 185 182 170 52 73 91 80 79 83 76 72 66 65 61 52 47 42 45 45 39 32 22 13 12 13 19 13 8
311 296 324 55 187 227 250 273 270 155 185 158 192 123 135 78 62 77 130 133 272 263 213 199 229 157 114 109 143 167 174 172 175 175 177 180 183 190 195 193 199 200 204 203 198 201 209 211 205 201 206 211 215 220 212 204 215 207 171 126 80 92 93 85 95 92 78 83 85 71 67 67 67 62 53 43 41 34 27 22 16 6 12 14 12 6 11
313 300 359 306 29 168 205 247 260 132 119 146 206 153 206 141 184 177 123 101 259 275 260 136 135 151 148 153 169 172 180 182 175 180 184 186 191 193 196 198 196 200 203 207 192 196 202 207 205 195 203 212 198 206 208 208 207 132 102 104 104 97 104 100 88 91 88 83 81 77 66 59 55 52 44 37 33 27 23 13 2 4 11 356 360 7 7
261 261 17 326 347 3 359 292 224 188 197 178 181 301 166 184 150 117 158 223 217 202 172 141 194 180 176 165 170 171 179 185 184 188 191 194 195 195 195 193 198 198 200 202 194 186 188 196 190 191 182 166 173 176 143 104 98 113 113 111 108 103 99 96 89 85 93 85 81 82 75 68 58 45 39 32 21 18 14 4 17 18 2 1 360 3 25
242 298 330 342 33 334 244 232 184 153 188 179 164 190 189 211 154 201 183 204 214 148 168 169 190 192 199 181 205 175 167 182 196 200 197 200 199 200 196 195 195 203 201 198 198 192 187 188 182 170 168 149 138 120 119 113 103 106 107 101 105 110 107 104 106 99 97 96 86 82 75 61 52 47 43 34 25 17 16 24 26 19 9 5 2 19 40
266 313 16 30 330 242 244 285 243 196 168 165 178 212 207 202 244 74 113 201 172 194 189 194 189 197 206 196 184 213 181 163 178 193 206 199 195 196 200 205 209 204 199 185 179 194 211 168 127 107 93 107 109 108 111 104 107 106 105 108 106 112 110 108 100 97 90 88 85 70 66 62 54 49 43 35 31 22 31 33 28 19 14 10 13 31 60
49 39 54 98 236 244 280 319 1 90 87 118 95 19 288 233 200 179 185 208 207 189 201 222 219 201 205 226 237 187 193 179 172 184 197 196 186 192 196 199 205 195 193 183 173 182 155 115 117 119 123 117 108 108 108 111 109 107 108 104 104 102 101 100 95 96 93 85 79 67 66 64 60 49 46 47 44 27 42 33 29 27 19 24 21 22 46
201 201 155 217 285 324 341 353 235 155 161 170 166 192 270 249 214 175 197 223 233 247 234 220 224 160 87 165 238 268 213 212 189 166 183 175 188 187 192 192 194 190 177 156 148 126 115 123 120 121 124 113 110 110 102 103 105 105 102 102 105 105 103 100 92 82 81 82 76 72 64 69 70 59 55 50 46 52 58 44 41 33 25 26 26 31 40
125 141 271 340 1 251 272 248 269 277 273 168 153 102 305 279 236 210 192 209 221 226 267 82 142 123 91 150 252 241 243 226 199 191 166 165 150 142 116 91 106 118 123 120 125 124 116 102 111 119 118 112 107 102 102 103 104 102 100 102 108 103 98 96 91 83 82 83 84 80 72 69 80 86 79 73 61 58 76 60 48 34 39 34 29 36 50
100 127 164 202 183 239 212 249 262 257 148 134 111 67 304 273 259 233 193 210 218 198 191 166 138 122 162 215 226 239 225 233 212 134 141 143 147 142 141 140 130 127 129 126 126 114 111 109 109 112 110 106 101 100 102 105 102 101 101 107 106 107 109 102 86 80 74 80 89 87 81 78 78 78 75 80 85 75 74 74 67 50 47 49 37 37 41
177 145 164 232 198 218 292 255 267 265 163 98 66 137 271 260 278 260 162 159 176 164 155 142 150 150 182 212 226 235 224 160 209 168 146 137 128 113 101 90 120 123 125 113 107 111 113 121 127 116 108 100 100 103 103 103 100 104 111 114 114 107 100 86 79 73 76 80 77 76 57 37 54 71 81 81 76 78 63 74 69 53 56 64 58 37 23
203 160 221 321 298 284 283 298 290 262 301 74 99 192 236 248 264 299 153 155 163 138 134 151 140 222 184 200 222 191 137 116 90 60 78 110 127 132 128 127 118 105 96 106 113 115 118 123 120 113 107 102 102 106 108 102 109 121 128 119 104 98 88 78 62 62 67 79 75 63 85 73 88 78 88 113 102 87 86 64 64 49 51 52 73 50 17
183 215 174 209 232 240 294 300 295 281 121 182 206 231 214 227 248 267 176 153 210 150 144 165 163 190 226 208 123 124 129 130 123 118 118 108 87 71 91 114 113 105 104 103 102 99 109 115 114 110 105 103 110 111 105 110 128 133 118 108 100 91 92 104 120 116 102 82 83 94 79 83 80 74 61 110 126 122 92 75 68 58 49 43 50 69 12
61 54 87 321 214 272 353 316 344 31 113 228 212 259 338 8 285 15 8 104 191 137 106 144 136 123 80 102 119 129 122 122 130 133 130 126 127 128 121 107 110 116 111 109 110 116 114 112 113 115 109 108 113 112 111 132 136 120 112 104 95 88 85 87 101 100 91 95 95 103 99 103 108 115 117 105 105 105 96 74 67 59 37 34 42 10 355
173 102 163 192 202 242 321 37 135 293 179 234 236 151 31 1 101 58 55 1 272 212 133 147 112 115 107 82 106 103 110 114 115 113 110 109 109 104 99 117 127 115 113 113 113 110 112 111 114 120 114 116 118 115 128 151 123 115 106 98 92 81 96 117 116 85 64 50 39 41 68 88 89 77 58 57 59 60 109 112 103 56 342 12 38 3 322
118 206 213 255 300 291 294 15 15 188 285 285 153 82 119 78 21 137 89 39 358 132 135 138 140 123 142 151 153 141 155 145 143 142 143 138 135 132 130 130 127 120 123 123 118 111 115 117 118 119 118 118 122 123 152 140 128 121 117 108 107 123 139 99 69 63 46 37 35 31 33 74 73 63 53 74 65 355 60 99 113 119 289 302 270 290 301
294 242 181 285 302 324 341 341 320 320 328 334 47 88 64 6 353 22 103 122 82 323 33 84 349 151 152 133 136 131 138 132 122 120 119 117 119 121 122 124 124 123 120 120 122 121 114 117 115 113 117 124 127 147 155 137 127 126 119 111 102 121 108 88 74 70 65 46 44 48 58 73 82 83 78 58 61 355 49 211 228 9 328 344 332 326 307
66 270 307 354 325 308 317 338 329 47 69 28 348 5 33 44 27 48 29 31 37 16 62 121 153 154 157 137 135 135 135 139 143 142 136 140 142 140 137 141 132 127 127 124 126 126 125 129 119 116 109 105 125 137 131 124 118 118 117 122 141 138 103 107 101 87 82 72 60 52 59 68 73 71 68 66 62 30 351 305 4 4 1 0 349 336 328
133 219 264 281 246 239 262 263 15 13 341 22 37 252 233 209 173 98 72 47 17 351 36 57 89 99 100 140 138 148 148 148 146 143 143 141 135 137 138 144 135 131 132 136 137 133 134 148 126 120 117 122 131 127 127 124 107 101 118 135 137 133 123 114 99 101 100 98 86 71 58 73 65 42 39 55 44 38 9 332 2 353 356 358 357 346 328
276 310 298 301 338 338 304 318 357 58 348 356 344 349 267 218 98 90 91 125 136 134 168 161 110 111 122 180 155 148 147 142 142 146 146 147 146 149 144 151 149 147 147 141 143 137 149 155 141 133 134 132 137 135 141 127 124 130 140 139 135 126 135 113 103 103 101 95 90 90 84 55 27 82 65 52 44 20 30 59 343 47 30 11 357 332 332
332 261 242 105 59 301 302 299 322 358 311 39 12 1 16 2 24 88 89 58 79 93 125 125 112 114 124 134 166 156 162 160 153 150 152 155 155 159 162 160 155 146 148 145 148 149 159 160 151 148 144 144 149 154 159 156 141 130 133 127 120 143 142 123 122 107 103 99 95 93 94 82 50 6 123 127 96 68 14 357 33 146 84 60 309 288 32
249 267 261 240 206 264 245 283 310 285 290 11 35 352 331 323 339 261 97 69 20 44 77 157 117 133 134 148 143 151 155 172 170 165 159 158 163 163 163 149 157 154 159 154 145 150 160 160 152 149 142 152 167 174 163 143 133 135 131 128 135 146 129 122 129 121 111 91 89 94 101 88 64 53 14 9 37 58 54 22 19 44 52 71 85 83 75
260 254 260 218 125 273 275 280 283 270 259 254 23 308 325 313 318 308 56 104 107 297 22 12 99 144 157 156 157 170 181 178 176 179 177 169 167 168 173 170 166 161 160 158 156 160 162 157 157 157 151 168 170 156 135 130 131 133 137 137 148 165 150 135 130 121 111 115 104 96 79 75 69 62 47 48 18 3 14 21 27 47 48 43 48 67 69
227 232 186 195 202 222 232 235 250 230 228 212 322 283 6 319 308 274 306 300 311 158 291 178 235 160 156 188 177 173 178 192 189 179 176 176 174 171 178 171 168 165 165 162 161 158 160 159 157 152 155 166 159 143 139 136 133 132 141 142 146 145 138 132 128 124 123 113 107 103 80 57 55 62 77 84 59 20 346 3 31 44 41 43 41 32 50
257 279 253 254 278 259 256 273 299 276 261 188 187 244 249 242 256 289 285 263 263 273 236 250 271 265 179 175 200 197 182 189 191 175 166 177 184 184 180 178 170 160 155 158 159 162 160 161 148 151 152 159 154 148 142 137 132 136 143 141 139 137 136 135 127 128 119 119 116 103 83 81 89 91 99 108 117 93 35 24 8 3 6 10 27 33 17
5 317 273 330 334 311 338 247 264 264 249 242 213 220 218 204 207 215 231 236 236 190 222 262 235 262 227 222 196 197 189 195 170 184 188 184 187 193 182 163 164 160 155 154 163 164 157 145 136 144 154 164 153 143 135 129 120 115 114 118 121 131 137 131 126 129 128 117 99 78 76 83 87 95 91 99 109 107 90 80 60 31 334 340 4 40 35
318 326 67 32 281 297 308 309 280 282 302 266 281 282 286 300 327 324 319 316 309 309 270 231 220 236 245 234 195 219 230 166 188 194 195 202 199 176 169 166 160 157 157 156 157 155 143 125 126 129 142 155 146 131 118 110 108 115 125 127 128 137 134 118 105 106 113 110 95 94 101 107 112 108 115 110 96 88 94 82 78 43 10 357 343 2 27
280 276 262 242 243 253 285 290 328 3 342 337 335 306 360 26 7 31 5 331 302 4 16 359 12 27 248 258 192 202 192 196 208 203 204 201 185 175 162 142 121 108 106 99 100 114 108 107 108 110 128 151 120 109 108 108 113 117 118 123 121 116 108 114 122 121 110 99 99 109 113 122 116 110 107 91 76 69 63 61 44 24 23 13 18 16 16
249 307 318 305 296 283 272 297 307 314 344 339 3 350 358 41 33 357 8 0 30 70 12 18 49 33 23 42 2 269 213 206 208 244 16 16 21 36 72 97 98 106 108 108 110 108 108 112 127 139 161 131 102 100 101 101 107 116 121 127 126 126 129 132 123 118 106 99 111 110 108 106 103 103 82 72 76 72 62 46 59 47 35 28 41 50 34
280 260 255 267 265 266 251 250 265 311 23 13 23 26 357 31 70 58 40 37 44 72 32 82 88 74 56 66 63 61 65 75 82 86 82 79 70 52 44 75 91 74 75 72 85 116 139 138 122 123 142 130 121 111 100 96 105 112 113 114 111 111 123 136 133 125 114 115 114 111 113 110 102 88 74 55 48 42 43 63 56 45 54 51 50 58 20
281 302 326 348 359 40 83 77 94 54 49 128 72 38 314 255 170 162 160 122 132 125 96 69 63 81 90 88 88 82 74 61 53 63 86 90 85 79 76 84 92 97 100 97 104 215 140 113 114 127 128 121 115 108 111 116 111 113 126 125 111 129 118 115 118 112 116 122 124 116 121 106 95 93 62 57 62 84 95 79 67 59 59 57 56 57 308
285 297 286 282 57 73 65 5 73 33 358 61 92 152 116 91 74 72 90 119 114 112 114 122 139 137 124 110 104 104 102 98 89 70 41 51 78 100 103 98 96 92 93 202 184 167 131 123 124 123 112 116 114 116 119 119 119 122 125 114 111 92 100 117 124 112 110 114 118 123 126 128 121 84 89 91 118 130 93 90 83 60 49 62 62 20 65
242 220 197 203 170 159 149 173 201 128 191 253 197 124 109 121 129 133 133 120 108 105 124 138 150 141 112 103 104 108 110 104 104 114 125 122 105 96 107 112 125 149 187 192 147 132 116 119 127 133 131 118 111 108 106 104 105 110 118 115 113 112 106 104 105 110 112 121 130 142 129 93 74 95 95 107 133 93 91 97 84 73 61 44 16 340 355
174 160 154 155 150 151 157 154 160 169 171 159 122 87 159 158 155 157 159 153 160 168 165 150 143 137 129 120 115 112 112 118 124 123 120 123 138 140 136 123 113 102 85 70 114 125 133 136 136 129 123 116 113 112 108 104 105 100 102 104 109 106 110 113 121 121 126 139 141 106 73 76 93 96 101 127 115 98 100 94 83 72 73 52 11 355 20
108 104 122 124 143 145 137 153 160 167 180 179 173 160 155 152 143 143 157 165 150 135 133 127 118 106 110 122 124 130 131 135 138 137 138 145 155 150 133 131 129 122 105 88 155 147 148 141 143 135 123 115 107 103 110 117 112 116 113 106 104 106 110 122 123 115 126 128 118 114 108 117 100 81 98 114 91 89 89 76 61 63 81 59 24 18 21
143 151 167 169 178 152 146 153 144 136 138 143 144 130 110 104 118 113 106 107 126 144 146 143 126 131 143 151 139 134 139 147 150 154 157 155 147 135 143 137 139 145 145 153 194 174 142 137 137 119 117 120 122 126 132 123 114 109 100 102 109 119 125 127 126 118 121 124 117 99 97 88 72 67 63 72 84 96 92 80 60 65 70 51 29 28 25
206 161 163 164 181 165 178 196 156 110 102 82 59 140 137 130 121 113 110 112 124 138 141 142 148 144 126 126 140 156 174 174 160 162 166 158 163 151 151 160 161 158 164 174 164 155 153 149 141 123 132 130 139 137 116 101 112 115 110 116 126 134 132 131 128 122 120 106 90 91 93 94 92 77 65 64 82 100 92 81 78 88 79 32 21 13 30
330 305 164 168 144 172 192 160 121 122 129 136 133 96 83 113 121 113 102 107 110 133 129 139 130 116 126 142 162 173 183 179 178 152 168 190 189 166 182 175 179 175 163 156 144 151 151 157 154 144 141 143 139 132 121 120 129 142 130 124 129 140 141 138 138 133 118 107 101 104 99 96 93 90 75 74 87 93 88 88 96 101 76 12 11 8 14
337 344 344 10 65 206 188 194 177 160 158 140 133 136 140 121 116 106 116 122 240 190 136 137 140 149 153 146 155 186 211 190 182 171 170 160 150 135 144 201 177 140 138 143 141 146 167 164 149 143 143 146 143 144 145 149 146 137 127 121 130 128 136 135 125 116 115 109 108 109 103 103 102 96 84 77 74 82 80 73 83 78 19 6 26 32 36
356 338 323 322 328 1 248 155 163 194 162 153 142 146 147 141 145 133 160 193 229 182 169 169 156 146 155 160 172 187 193 162 153 155 148 127 120 135 137 173 186 161 153 142 143 154 164 163 154 144 147 149 152 150 156 148 149 120 108 126 129 131 142 131 123 123 120 115 115 114 118 115 95 78 70 68 74 74 55 44 20 10 23 41 49 42 51
24 344 321 320 323 346 348 319 275 117 144 157 159 155 158 152 148 171 191 189 189 185 164 184 181 169 177 171 158 154 133 131 137 154 159 145 148 143 139 174 180 171 148 134 146 148 154 149 144 145 151 157 161 169 157 170 149 113 125 122 132 140 134 129 118 112 109 112 116 118 117 105 99 87 74 63 44 33 35 27 28 32 39 50 51 42 50
349 354 341 317 316 334 347 347 311 257 167 170 172 169 172 161 146 152 158 171 177 187 182 185 183 173 157 149 145 162 183 154 141 153 164 166 172 163 160 182 178 163 158 151 150 139 148 143 150 152 157 155 169 173 191 189 129 127 127 130 134 140 127 115 112 114 114 114 115 113 101 93 87 82 69 59 57 58 54 49 46 48 46 36 33 31 35
334 343 315 329 332 330 353 340 314 291 265 203 188 176 168 171 158 158 176 182 191 192 194 206 200 203 203 177 168 187 209 202 192 182 170 165 231 281 258 167 168 165 171 158 152 146 151 153 155 160 164 165 169 177 178 155 129 118 111 120 124 115 105 106 111 116 115 114 108 103 101 97 89 79 75 70 68 61 59 59 58 51 42 37 30 30 28
327 314 321 321 317 311 310 306 296 276 235 235 300 300 184 170 168 170 163 146 133 43 6 334 311 285 258 215 210 213 210 204 195 164 154 167 187 227 229 169 152 159 181 162 148 152 156 160 166 164 167 174 175 177 167 139 124 130 129 116 113 116 116 119 122 117 111 109 109 108 103 97 92 87 86 84 81 78 81 80 71 60 60 40 29 23 14
305 316 276 278 293 49 350 301 282 299 347 62 82 44 13 9 84 106 125 133 148 167 164 168 202 234 225 219 243 259 267 250 223 207 200 178 179 203 170 166 166 172 169 160 150 161 169 170 166 169 169 169 172 168 147 125 134 124 118 123 123 123 121 123 115 115 116 115 113 110 105 99 91 87 92 92 95 100 102 98 83 59 50 41 25 14 353
292 309 327 326 319 318 274 238 268 289 279 36 71 54 347 358 7 22 39 97 165 204 204 254 235 261 248 201 180 227 269 280 272 220 220 250 225 179 163 162 163 166 158 161 165 168 167 170 175 173 173 177 169 154 137 135 135 123 129 127 130 129 128 124 123 122 121 119 117 109 102 100 100 103 99 97 97 99 100 90 78 59 35 28 16 11 358
287 289 303 320 316 292 253 273 266 243 207 154 163 161 182 158 122 46 28 6 349 330 339 338 283 256 232 240 234 176 177 173 227 267 210 190 209 161 150 153 172 181 172 152 158 163 164 167 172 175 182 173 157 141 148 146 130 131 136 135 135 132 129 125 127 127 127 127 121 112 109 105 104 101 101 106 112 113 111 102 91 70 38 33 21 2 353
253 264 264 239 265 271 256 226 229 207 204 207 180 186 187 116 85 84 91 214 261 282 285 271 255 253 246 235 220 210 212 176 167 222 215 177 168 172 169 158 158 158 151 154 163 170 179 176 176 182 173 149 150 167 169 146 135 138 140 140 139 137 136 137 141 141 133 130 124 120 117 119 120 119 122 125 121 117 108 99 97 83 61 28 14 3 4
278 327 347 355 284 292 291 257 218 209 209 194 185 192 180 112 102 266 208 222 239 234 234 241 250 256 253 184 143 162 92 71 86 151 161 178 157 130 131 145 161 174 170 165 170 173 180 178 167 172 171 174 181 189 172 143 145 146 145 142 137 137 140 140 139 133 128 125 120 120 123 125 129 133 128 121 116 110 108 108 92 64 45 34 26 8 0
355 5 326 300 293 266 250 234 220 214 203 202 192 178 158 172 200 217 231 252 201 195 210 230 264 266 288 320 103 169 151 133 116 132 161 164 165 164 164 156 164 181 185 176 171 168 163 170 192 201 200 189 189 182 164 152 150 150 148 144 142 139 139 136 135 133 132 129 129 128 128 132 131 124 121 116 112 106 101 85 66 48 44 39 28 9 352
261 219 254 280 279 281 274 244 243 231 222 206 196 183 182 181 192 234 237 232 180 170 181 153 281 300 328 63 52 38 28 50 79 135 162 167 184 212 184 170 172 181 185 185 173 164 161 170 193 207 199 182 195 187 171 151 146 149 146 142 142 142 142 143 139 136 135 133 130 129 131 133 127 117 115 111 106 99 87 74 68 58 50 33 18 359 346